Find Starlink 11077

NORAD ID: 58707 Int'l Des: 2024-002 Owner: SPXS Country: US Constellation: starlink operational
LEOCIRCULAR

Live Position

Loading 3D Globe...

About Starlink 11077

Description loading...

Upcoming Passes

Passes for default location (London). Set your location on the main map for personalized predictions.

Altitude History

Loading altitude history...

Two-Line Element Set

1 58707U 24002C 26121.96684398 -.00005614 00000-0 -41562-4 0 9990
2 58707 53.1584 11.4781 0001080 70.6372 289.4763 15.69681226134802
Epoch: May 1, 2026 • Age: 6 hours

Current Status

Altitude 375.4 km
Velocity 7.68 km/s
Sub-Earth Point -44.14°S, 55.6°W
Launch Date Jan 3, 2024
Age 2.3 years
Type internet

Technical Details

Classification Payload
Mass 960.00 kg
Dry Mass 910.00 kg
Total Mass 960.00 kg
Length 0.30 m
Diameter 4.10 m
Span 29.00 m
Shape Box + pan
Manufacturer SPXS
Bus Type Starlink V2MD
Phase Status In Orbit
Owner/State SPXS/US

Most Searched